Lapse_Rate
7.9 7.8 7.5 7.4 7.2 7.1 6.8 6.5 6.4 6.3 6.1 6.0 5.9 5.9 6.3 6.7 7.0 7.2 7.5 7.8 7.9 8.3 8.4 8.2 8.5 8.5 7.7 7.8 7.5 7.0 7.7 7.7 7.4 7.1 7.1 7.2 7.2 7.2 7.2 7.0 6.8 6.5 6.2 6.0 5.5
8.0 7.9 7.7 7.5 7.3 7.1 6.9 6.6 6.4 6.3 6.2 6.1 6.0 6.1 6.3 6.5 6.9 7.4 7.8 7.9 8.0 8.3 8.8 8.7 8.4 8.1 8.0 7.4 7.6 7.6 7.5 7.6 7.5 7.2 7.3 7.6 7.9 7.9 7.8 7.5 7.0 6.8 6.4 6.0 5.5
8.1 7.9 7.8 7.7 7.4 7.1 7.0 6.8 6.5 6.4 6.3 6.2 6.1 6.2 6.3 6.4 7.0 7.5 7.9 8.2 8.4 8.7 9.1 8.8 8.7 8.2 7.5 7.5 7.7 7.1 7.4 7.8 7.3 7.5 8.1 8.1 8.2 8.1 7.6 7.4 7.1 6.8 6.8 6.0 5.6
8.2 8.0 8.1 7.7 7.5 7.2 7.0 6.9 6.7 6.5 6.4 6.3 6.3 6.6 6.6 6.7 7.0 7.5 8.2 8.4 8.6 9.0 9.2 8.3 8.9 8.9 8.3 8.4 7.8 7.8 6.7 7.6 7.8 7.5 7.7 7.7 8.0 7.8 7.7 7.6 7.3 6.9 6.1 6.1 5.6
7.9 8.0 8.1 7.7 7.4 7.2 7.0 7.0 6.9 6.6 6.5 6.6 6.6 6.7 6.8 7.1 7.3 7.8 8.2 8.3 8.8 9.2 9.2 8.4 8.4 8.3 8.3 8.2 8.1 7.8 7.5 7.6 7.5 7.3 7.8 7.9 7.7 7.6 7.7 7.6 7.1 6.5 6.1 6.0 6.0
7.6 7.8 7.9 7.7 7.5 7.3 7.1 7.0 6.9 6.7 6.6 6.7 6.8 6.9 7.0 7.4 7.5 7.9 8.1 8.3 9.0 9.3 8.7 8.6 8.4 8.2 8.5 8.1 7.9 7.5 7.8 7.5 7.5 7.8 8.2 7.9 7.6 7.5 7.3 7.0 7.7 6.2 6.3 5.9 5.9
7.6 7.7 7.8 7.7 7.5 7.2 7.0 7.0 6.8 6.7 6.7 6.9 6.9 7.0 7.4 7.5 7.8 7.8 8.3 8.7 9.1 8.9 8.2 8.4 8.8 8.9 8.6 8.6 7.8 7.9 7.8 7.8 7.9 8.1 8.0 7.7 7.6 7.6 7.3 6.6 6.1 6.9 6.3 5.8 5.6
7.6 7.7 7.8 7.7 7.5 7.1 7.0 6.9 6.8 6.8 6.8 7.1 7.1 7.2 7.5 7.7 7.7 7.9 8.4 9.0 8.6 8.4 8.7 8.4 8.7 8.8 9.0 8.9 8.4 8.2 8.1 8.1 8.1 8.2 8.0 7.5 6.7 7.1 6.8 6.5 6.1 6.5 6.4 5.5 5.7
7.5 7.6 7.8 7.7 7.4 7.1 7.0 6.9 6.8 6.9 7.0 7.2 7.3 7.4 7.8 7.9 7.8 7.9 8.1 8.3 8.5 8.9 8.7 9.0 9.1 9.1 8.8 8.9 8.8 8.4 8.4 8.6 8.6 8.1 7.4 7.1 6.6 6.6 6.3 6.6 5.2 5.5 5.6 6.0 5.9
7.5 7.6 7.7 7.7 7.5 7.2 7.0 6.9 6.9 7.1 7.2 7.3 7.6 7.5 7.8 8.2 8.1 8.1 8.2 8.2 8.3 8.7 9.1 9.3 9.2 9.1 9.1 8.6 8.6 8.5 8.4 8.7 8.6 8.2 7.7 7.2 6.7 6.8 6.3 5.6 5.4 5.4 5.4 5.8 6.0
7.4 7.5 7.6 7.6 7.6 7.5 6.9 6.8 6.7 6.6 6.8 7.3 7.4 7.5 7.7 7.9 8.3 8.2 8.1 8.1 8.5 9.0 9.3 9.4 9.2 8.9 8.6 8.7 8.3 8.5 8.5 8.4 8.3 7.9 7.3 6.4 6.4 5.9 5.8 5.4 5.2 5.5 5.7 6.4 6.2
7.5 7.5 7.6 7.6 7.6 7.2 7.0 7.2 7.1 7.1 7.5 7.5 7.6 7.7 7.8 7.9 8.2 8.5 8.1 8.4 8.7 8.8 8.7 9.0 9.2 8.9 8.9 8.7 8.7 8.4 8.1 7.8 7.4 7.4 7.2 6.8 6.6 6.2 6.1 5.5 5.2 5.4 5.5 6.1 6.6
7.6 7.5 7.6 7.5 7.4 7.5 7.3 6.8 7.0 7.2 7.4 7.9 8.0 8.0 8.0 8.2 8.4 8.6 8.5 8.9 8.7 8.6 8.3 9.2 8.9 9.0 8.8 9.0 8.9 8.5 8.5 8.7 8.3 7.1 6.3 6.9 6.6 6.0 6.0 5.7 5.7 6.2 6.2 6.1 6.1
7.5 7.7 7.6 7.7 7.6 7.4 6.9 7.0 7.1 7.4 7.5 8.1 8.2 8.0 8.1 8.3 8.7 8.9 9.1 9.2 8.9 8.6 8.8 9.2 9.2 9.0 8.6 8.4 8.3 8.1 8.3 8.8 8.1 7.8 6.8 7.1 6.0 6.1 5.6 5.6 5.7 5.6 6.0 6.6 6.3
7.8 7.8 7.9 7.8 7.5 7.1 7.1 7.1 7.4 7.5 7.2 8.6 8.6 8.4 8.8 8.7 9.0 9.4 9.3 9.1 9.0 8.8 8.9 9.0 8.4 8.4 8.3 8.0 8.0 8.3 8.7 8.0 8.3 7.5 7.5 7.3 6.7 5.9 5.6 6.0 5.9 6.0 6.0 6.4 6.1
7.7 7.8 7.9 7.6 7.2 7.2 7.3 7.4 7.7 7.6 7.9 9.0 9.0 8.8 9.0 9.3 9.4 9.5 9.4 9.3 9.0 9.1 8.9 8.7 8.8 8.5 8.2 8.3 8.4 8.0 8.5 8.6 8.4 8.1 6.4 6.5 6.2 5.9 6.3 6.5 6.3 6.0 6.2 6.2 6.0
7.9 7.9 8.0 7.5 7.3 7.3 7.6 8.0 8.1 7.7 8.7 9.1 9.3 9.6 9.5 9.5 9.6 9.6 9.2 9.0 8.8 8.7 8.6 8.7 8.7 8.7 8.0 7.8 8.1 7.9 8.5 8.6 7.9 6.0 5.8 5.8 6.0 5.6 6.1 6.5 6.2 6.1 6.1 6.4 6.3
8.0 8.2 8.0 7.5 7.5 7.7 7.9 8.2 8.5 8.7 9.0 9.1 9.2 9.4 9.8 9.5 9.0 8.9 8.4 8.3 8.2 8.2 8.5 8.6 8.4 8.2 7.3 7.5 7.8 7.9 8.2 8.4 7.8 5.9 5.6 5.9 5.7 5.9 6.3 6.3 6.2 6.2 6.1 6.2 6.2
8.2 8.5 8.0 7.5 7.6 7.7 8.0 8.7 8.7 8.8 8.7 8.8 9.4 9.4 9.4 9.3 9.3 8.8 8.3 7.6 7.7 7.9 8.2 8.1 7.7 7.6 7.3 7.6 7.9 7.9 8.0 8.1 7.4 6.5 5.9 5.8 5.7 5.9 6.0 6.3 6.2 6.2 6.1 6.1 6.3
8.1 8.5 7.9 7.7 7.8 7.8 8.5 8.7 8.8 8.7 8.7 8.5 9.0 9.1 9.2 8.9 8.8 9.0 8.1 7.8 7.9 7.8 7.7 7.9 7.7 7.1 7.3 7.5 7.4 7.4 7.5 7.7 7.6 5.8 5.7 5.5 5.7 6.0 6.2 6.3 6.2 6.1 6.1 6.2 6.1
8.1 8.4 7.8 7.9 7.9 8.2 8.4 8.4 8.7 8.4 8.5 8.2 8.6 8.6 8.7 8.6 8.6 8.4 7.6 7.7 7.5 7.7 7.6 7.3 7.1 6.4 7.3 6.4 6.6 7.0 6.9 6.9 6.7 6.2 5.4 5.8 5.3 6.0 6.4 6.4 6.3 6.1 5.9 6.0 5.9
8.1 7.7 7.3 7.8 8.0 8.2 8.4 8.7 8.8 8.9 8.7 8.4 8.3 8.6 8.5 8.6 8.1 8.4 7.9 7.3 6.9 7.2 7.2 7.0 6.5 5.7 6.1 6.1 5.9 5.9 6.2 6.4 6.6 6.1 5.9 5.9 5.9 6.1 6.4 6.5 6.5 6.2 6.0 6.0 6.0
7.7 7.5 7.6 7.6 8.0 8.5 8.6 8.3 8.3 8.5 8.5 8.3 8.4 8.2 8.1 8.3 8.1 7.7 7.4 6.7 7.0 7.3 7.0 7.1 6.5 5.7 6.1 6.3 5.9 6.1 6.3 6.3 6.4 6.6 6.2 5.9 6.0 6.2 6.3 6.3 6.1 6.1 6.1 6.2 6.2
7.6 7.5 7.9 8.0 8.0 8.5 8.6 8.1 8.3 8.5 8.4 8.5 8.4 8.5 8.4 7.8 7.7 7.3 7.0 6.6 6.7 6.6 7.0 7.2 6.9 6.6 6.0 6.1 6.2 6.3 6.4 6.4 6.4 6.3 6.2 6.2 6.4 6.3 6.4 6.3 6.4 6.5 6.4 6.2 5.8
7.5 7.3 7.5 8.0 8.4 8.7 8.4 8.2 8.3 7.9 7.6 7.7 8.0 8.2 7.9 7.5 7.2 6.6 6.6 6.3 6.4 6.8 6.8 6.8 6.3 6.3 6.1 6.2 6.1 6.3 6.5 6.6 6.2 6.1 6.0 5.9 6.0 6.0 6.3 6.4 6.5 6.4 6.2 6.1 6.1
7.5 7.8 8.0 8.0 8.3 8.5 8.2 8.0 8.0 8.0 8.1 8.0 8.1 7.8 7.8 7.6 7.1 6.6 6.6 6.5 6.1 6.2 6.4 6.4 6.2 6.2 6.1 6.4 6.6 6.0 6.2 6.5 6.7 6.3 6.3 6.5 6.4 5.9 5.9 6.3 6.6 6.6 6.6 6.8 6.4
7.5 7.5 7.6 7.3 7.5 7.7 8.0 7.6 7.5 7.4 7.9 7.8 7.4 7.4 7.2 7.0 6.9 7.0 7.0 6.8 7.0 6.6 6.6 6.5 6.4 6.5 6.3 6.3 6.5 6.3 6.1 6.3 6.1 6.2 6.2 6.3 6.0 6.0 6.0 5.8 6.1 6.3 6.3 6.4 6.5
Wind_Speed
15 15 15 15 15 15 16 16 15 15 13 13 13 14 14 16 19 4 4 8 3 16 3 3 1 4 6 4 6 5 4 4 9 8 4 8 5 5 6 7 5 4 6 7 9
14 15 14 14 14 15 16 16 15 14 13 12 13 14 14 15 2 4 8 11 7 17 3 5 3 5 5 5 3 5 2 3 3 5 5 6 8 7 5 9 6 10 8 6 9
13 12 14 14 14 15 15 15 15 14 12 12 13 14 14 10 3 5 12 13 12 13 3 2 2 10 7 4 4 3 2 6 3 6 15 8 12 6 11 5 5 10 7 7 14
16 15 16 16 15 16 16 15 14 13 12 12 13 15 15 1 1 3 10 14 13 7 3 6 6 7 6 6 7 7 4 9 18 12 6 2 7 5 5 3 9 8 7 7 11
16 15 16 16 16 17 17 15 13 12 12 12 13 13 0 2 7 4 9 8 5 3 4 8 12 6 8 3 5 4 5 11 24 18 11 14 11 9 11 12 12 9 8 7 7
15 16 17 16 17 17 17 16 14 13 11 10 11 11 1 2 2 14 10 6 5 4 2 7 8 6 7 3 3 4 6 6 5 9 8 14 11 6 10 12 15 11 6 3 7
16 16 16 17 18 18 18 18 16 12 10 8 8 3 1 8 8 15 11 6 5 6 5 8 13 7 8 8 4 4 3 4 5 2 4 18 7 7 13 11 10 14 9 8 7
18 17 18 17 17 18 19 20 18 12 9 4 2 2 5 4 9 7 5 6 7 6 2 11 8 9 4 5 6 4 2 2 4 5 5 1 6 14 14 15 13 16 14 10 9
16 17 17 17 18 19 21 24 20 10 6 3 2 1 8 3 5 8 6 5 6 2 9 9 7 5 3 6 4 3 4 2 6 5 5 5 11 12 11 11 12 9 11 12 9
16 16 17 16 17 20 26 18 8 5 4 5 3 2 3 5 3 3 5 5 2 3 8 3 5 3 3 4 4 5 4 4 6 5 8 15 10 11 7 7 12 10 12 9 8
18 16 16 15 15 15 10 4 4 2 1 6 4 4 2 3 2 4 4 2 4 8 5 4 7 4 7 7 6 6 4 6 7 2 10 7 7 5 1 7 13 5 14 7 2
17 16 16 15 13 10 2 1 5 3 7 9 12 7 8 2 6 8 3 3 3 3 1 5 4 1 9 10 8 5 3 1 11 14 12 8 6 6 11 8 16 16 14 10 6
17 16 15 15 12 1 1 6 8 8 1 10 5 5 6 8 10 9 10 6 6 1 1 5 2 4 6 4 6 5 3 2 4 13 19 7 9 4 8 10 8 11 11 7 7
17 16 15 19 3 3 5 5 9 6 4 6 3 5 4 5 5 8 11 8 3 10 6 1 3 4 4 4 2 3 4 5 18 7 4 2 4 5 5 6 7 7 4 5 8
16 13 11 9 2 3 6 12 11 4 1 6 5 3 6 8 3 5 8 5 6 4 6 3 3 4 2 4 4 6 3 6 18 11 5 7 5 3 4 3 9 10 6 5 6
16 12 9 2 1 6 15 13 4 5 4 4 5 7 3 3 4 1 3 4 2 5 6 4 1 3 2 5 3 3 3 13 6 5 5 6 2 3 2 6 4 6 7 6 9
16 10 4 2 4 9 7 5 5 3 5 5 2 3 6 5 4 6 6 8 4 5 5 3 4 2 3 7 6 11 6 3 4 5 2 7 4 4 5 3 5 7 8 8 5
19 8 8 5 15 10 4 5 3 4 4 5 9 8 3 7 8 11 10 9 11 5 3 3 7 6 6 1 2 4 3 5 1 4 2 6 3 5 2 6 6 6 3 8 7
19 1 2 5 5 3 5 4 5 4 4 12 5 9 5 6 7 6 11 6 6 6 4 3 5 5 13 16 5 6 4 1 7 4 4 2 3 7 5 3 4 4 7 8 4
1 3 4 3 12 4 4 4 4 3 9 12 1 3 5 6 3 5 4 5 3 9 2 2 4 9 5 7 9 5 4 5 4 4 3 2 2 3 6 4 5 6 6 6 8
2 3 4 9 4 4 2 3 5 15 12 4 0 3 3 4 5 4 4 3 6 6 8 3 4 6 9 6 5 6 5 5 5 4 4 4 2 5 3 0 4 2 6 9 7
2 3 3 3 3 0 1 3 5 6 4 5 7 7 4 7 6 5 5 5 6 4 3 3 5 5 11 5 5 2 4 4 4 1 3 4 1 3 0 5 6 2 6 5 9
1 2 2 5 2 3 2 5 3 5 5 6 7 7 7 5 6 9 4 2 3 5 2 3 2 4 5 6 8 7 10 5 5 3 3 4 0 4 4 4 3 2 4 5 5
2 3 4 4 2 6 2 4 7 3 7 9 3 10 8 10 6 4 5 3 3 5 5 9 5 5 4 5 2 6 12 13 7 6 4 3 3 7 6 3 2 6 4 3 3
2 3 4 2 3 5 3 1 8 1 3 6 8 9 5 6 8 6 6 3 7 9 6 6 5 8 5 4 10 7 11 14 12 5 6 5 7 6 9 4 3 2 5 6 6
2 2 4 1 5 9 6 7 6 9 6 5 9 7 9 5 5 3 5 3 1 7 5 5 2 3 5 10 14 9 11 12 11 8 7 5 7 6 8 6 12 13 12 12 8
2 2 4 5 3 5 3 3 3 3 11 5 9 8 10 8 7 5 6 4 4 5 2 4 4 3 1 2 3 9 8 11 10 11 3 6 3 5 14 11 7 9 9 11 11
Wind_Direction
339 333 328 323 321 326 322 315 327 319 325 318 319 318 317 325 316 146 237 216 172 176 174 173 229 334 26 71 75 123 68 182 176 169 211 151 109 55 58 98 60 26 73 86 107
334 328 321 316 319 325 316 315 322 315 316 320 324 318 323 332 311 245 236 175 131 150 199 50 294 88 54 37 20 72 53 256 152 164 108 75 103 117 101 96 79 94 63 66 103
333 326 320 314 330 318 312 320 315 313 318 328 324 319 322 323 334 250 189 166 167 170 99 251 340 98 62 28 40 40 335 297 83 89 96 91 66 102 115 56 130 135 115 97 107
335 332 327 325 321 314 319 315 316 318 324 332 324 321 315 258 77 246 169 154 172 187 113 52 359 62 54 130 168 132 345 49 50 69 102 87 113 90 73 109 116 111 98 98 98
331 330 326 321 320 321 313 314 320 323 331 327 323 325 289 353 250 162 153 148 169 149 113 123 92 115 149 194 52 110 125 93 128 156 131 121 118 104 91 105 104 93 88 98 104
330 328 325 321 324 320 313 319 324 323 322 318 316 319 348 319 188 154 154 161 204 182 145 143 171 178 110 83 36 69 82 95 119 163 128 110 121 81 128 132 118 114 113 123 137
330 329 325 326 324 320 317 319 319 310 307 298 297 291 36 231 158 166 174 202 196 173 158 153 158 144 128 127 121 93 43 234 339 192 107 115 86 99 145 143 139 136 151 177 184
330 331 330 328 324 323 318 312 299 293 293 273 250 235 255 233 161 148 187 289 243 193 225 171 93 81 35 124 43 76 76 291 203 183 107 10 90 146 160 165 161 171 164 182 198
329 330 329 328 328 324 315 301 289 281 185 173 166 72 291 342 155 227 157 231 305 319 166 132 73 94 54 100 51 53 267 211 316 84 114 71 135 173 181 175 175 164 193 177 198
330 330 328 329 335 327 314 292 289 299 150 178 271 14 291 247 233 227 183 221 261 342 105 71 61 105 40 59 175 211 235 238 225 86 73 87 128 173 197 191 190 178 214 179 177
329 331 330 331 334 334 346 6 12 14 103 195 196 233 264 238 320 270 256 29 342 56 25 8 78 86 175 164 264 185 213 221 75 11 59 110 167 208 302 264 222 200 100 166 223
327 331 327 328 323 323 304 228 225 125 308 221 238 235 250 268 251 253 121 143 60 277 18 15 160 172 97 143 150 198 184 327 87 110 85 113 99 32 45 46 97 106 164 174 171
325 328 326 318 313 292 241 246 295 32 327 299 208 199 220 150 206 214 152 184 203 257 261 169 37 158 144 137 131 224 170 146 143 95 130 93 56 31 78 97 120 156 159 175 169
326 329 327 320 344 350 267 262 294 133 53 279 226 252 220 138 276 202 199 158 141 208 164 86 276 106 62 64 79 330 250 253 130 117 172 198 142 29 109 122 151 188 197 217 194
326 329 332 13 284 310 255 313 295 72 22 255 239 204 167 156 243 260 167 66 161 199 102 250 13 355 346 176 205 238 222 93 109 109 103 7 82 212 183 190 202 231 227 238 227
324 328 321 102 231 253 318 303 57 46 267 293 159 175 162 199 252 357 99 69 147 108 52 181 344 54 261 250 183 260 42 101 95 98 56 304 115 308 5 293 201 218 239 240 220
317 306 284 313 244 17 339 26 45 123 300 303 218 190 189 242 221 107 65 44 66 53 14 343 343 301 5 3 24 49 52 2 2 36 86 325 42 250 304 328 267 219 223 221 170
315 301 216 228 263 13 25 51 84 267 268 261 285 244 203 108 66 70 74 59 29 68 80 65 8 4 337 16 238 47 140 148 218 145 150 351 14 283 278 320 26 73 153 140 176
323 219 278 254 193 132 57 46 219 222 266 339 306 54 9 50 107 91 66 44 39 19 90 52 49 36 66 47 41 327 19 50 102 57 87 311 345 303 286 270 117 140 150 184 183
22 1 268 229 148 71 69 240 246 254 341 347 48 34 49 356 90 86 72 332 28 36 56 310 128 5 67 33 10 57 286 23 15 113 116 145 320 281 330 301 197 214 221 203 209
43 26 256 136 80 56 164 245 313 318 308 178 216 74 109 80 67 70 50 340 34 344 50 33 83 345 49 22 17 353 16 51 108 96 136 152 287 236 125 81 110 237 207 207 208
61 47 294 87 53 342 70 309 315 329 0 82 53 44 57 67 52 71 63 56 331 319 52 13 99 83 106 43 20 353 346 109 110 119 92 124 276 22 221 124 116 175 213 211 203
61 278 334 98 149 317 244 330 349 320 41 39 48 41 27 37 79 117 104 202 49 66 36 353 63 102 299 0 349 35 32 41 89 77 12 101 109 2 79 59 357 356 315 201 186
77 28 325 39 107 125 255 39 341 318 52 70 79 58 48 24 37 118 135 52 33 79 73 77 28 121 138 184 218 50 51 53 88 78 75 109 119 358 347 140 31 43 16 97 168
59 262 202 218 281 120 117 79 329 348 61 56 18 79 107 43 38 34 44 73 36 7 52 96 85 109 121 101 69 82 70 62 81 144 90 79 79 341 326 42 19 51 50 45 61
85 56 343 44 354 74 31 27 343 53 41 18 100 80 86 91 120 76 111 67 109 23 65 20 149 70 52 80 75 61 80 61 51 51 71 86 68 345 352 6 39 29 19 11 344
289 325 108 304 50 81 145 210 314 327 7 71 123 96 97 155 130 136 113 130 112 129 109 93 130 87 266 15 62 32 357 90 76 39 18 43 318 3 16 1 31 28 15 1 360